Regional Weather Roundup
Issued by NWS Charleston, SC

Current Version | Previous Version | Graphics & Text | Print | Product List | Glossary On
Versions: 1 2 3 4 5 6 7 8 9 10 11 12 13 14 15 16 17 18 19 20 21 22 23 24 25 26 27 28 29 30 31 32 33 34 35 36 37 38 39 40 41 42 43 44 45 46 47 48 49 50
000
ASUS42 KCHS 252045
RWRCHS

REGIONAL WEATHER ROUNDUP
NATIONAL WEATHER SERVICE CHARLESTON SC
400 PM EDT MON SEP 25 2017

NOTE: "FAIR" INDICATES FEW OR NO CLOUDS BELOW 12,000 FEET WITH NO
SIGNIFICANT WEATHER AND/OR OBSTRUCTIONS TO VISIBILITY.

NOT ALL STATIONS ARE QUALITY CONTROLLED. USE DATA WITH CAUTION...
ESPECIALLY DEWPOINT OBSERVATIONS.

SCZ027-030-031-034>040-042>050-252100-
...SOUTHEAST SOUTH CAROLINA...

CITY           SKY/WX    TMP DP  RH WIND       PRES   REMARKS
N CHARLESTON   PTSUNNY   82  69  64 N12       29.86F
WATERFRONT PRK   N/A     80  70  71 N8        29.71F
JOHNS ISLAND   MOCLDY    84  72  65 N6        29.86S
PINOPOLIS        N/A     81  72  74 NE8       29.82F
MONCKS CORNER  FAIR      81  66  61 N8        29.87F
SUMMERVILLE    FAIR      82  68  61 N5        29.88F
BEAUFORT MCAS  MOSUNNY   86  69  56 N7        29.88S HX  90
BEAUFORT ARPT  FAIR      82  68  61 N8        29.87S
HILTON HEAD IS MOSUNNY   84  68  58 N8        29.88F
WALTERBORO     CLOUDY    82  68  61 N5        29.89S
ALLENDALE      NOT AVBL

...SOUTHERN MIDLANDS AND PEE DEE...

CITY           SKY/WX    TMP DP  RH WIND       PRES   REMARKS
GEORGETOWN     FAIR      79  72  78 N12       29.88S
KINGSTREE      MOCLDY    81  68  65 NW3       29.88F
ORANGEBURG     MOSUNNY   86  63  45 N10       29.89F
BARNWELL       FAIR      88  66  48 NE13      29.89F HX  90
AIKEN          FAIR      84  63  48 N8        29.94F
MANNING        FAIR      82  55  39 MISG      29.89S
COLUMBIA       CLOUDY    88  63  43 N8        29.89F
SUMTER         PTSUNNY   87  64  45 NE16      29.87F
FLORENCE       MOSUNNY   80  68  66 NE18G24   29.90F
MYRTLE BEACH   MOSUNNY   79  70  73 N15       29.88F
N MYRTLE BEACH MOSUNNY   80  70  71 N13       29.86F

$$

GAZ063-065-086>088-099>101-113>116-118-119-134>141-150-252100-
...SOUTHEAST GEORGIA...

CITY           SKY/WX    TMP DP  RH WIND       PRES   REMARKS
SAVANNAH ARPT  MOSUNNY   88  67  49 N8        29.87F HX  91
HUNTER AAF     SUNNY     87  67  52 N7        29.84F HX  90
FORT STEWART   MOSUNNY   88  64  44 N8        29.85F
STATESBORO     SUNNY     88  59  37 NE7       29.88F
SYLVANIA       CLEAR     88  69  53 N8        29.89F HX  92
CLAXTON        FAIR      89  67  47 NW9       29.88S HX  91

...CSRA...CENTRAL AND FAR SOUTHEAST GEORGIA...

CITY           SKY/WX    TMP DP  RH WIND       PRES   REMARKS
THOMSON        SUNNY     86  62  44 E9        29.96F
AUGUSTA-BUSH   SUNNY     91  62  37 N12       29.90F HX  91
AUGUSTA-DANIEL SUNNY     88  61  40 N9        29.92F
SWAINSBORO     FAIR      86  61  42 N7        29.91F
VIDALIA        SUNNY     90  64  43 N8        29.89F HX  91
EASTMAN        FAIR      90  29  11 NE9       29.92F
HAZLEHURST     FAIR      89  40  17 CALM      29.88F
ALMA           SUNNY     91  62  37 VRB6      29.87F HX  91
WAYCROSS       SUNNY     90  58  33 N7        29.86F
JESUP          NOT AVBL
BAXLEY         FAIR      88  61  40 N8        29.88S
BRUNSWICK      SUNNY     86  68  54 NE9       29.86F
SAINT SIMONS   SUNNY     83  72  69 E9        29.86F

$$

SCZ027-028-034-036>038-045-046-048>050-GAZ119-141-252100-
...LAKE AND SUPPLEMENTAL COASTAL OBSERVATIONS...

STATION/POSITION TIME  TEMP    WIND        PRES    WAVE   SWELL
                       AIR SEA DIR/SP/G            HT/PER HT/PER/DIR
                 (UTC) (F)     (DEG/KT/KT) (MB)    (FT/S) (FT/S/D)
WINYAH BAY       1945   76     350/  6     1011.0F
LAKE MURRAY      2020   86      20/  3/  8 1011.9
ACE BASIN NERRS  1945   83     350/  3     1011.0F
FORT PULASKI     2000   81 81   60/  8/ 10 1011.7
SAPELO ISLAND    2000   85        CALM     1011.0

$$

ANZ835-935-AMZ111-154-330-350-352-354-370-450-454-472-252100-
...C-MAN AND BUOY OBSERVATIONS...

STATION/POSITION TIME  TEMP    WIND        PRES    WAVE   SWELL
                       AIR SEA DIR/SP/G            HT/PER HT/PER/DIR
                 (UTC) (F)     (DEG/KT/KT) (MB)    (FT/S) (FT/S/D)
BUOY 41004       2010   76 81  360/ 19/ 25 1010.1
BUOY 41008       1950   78 81  350/  6/  8 1011.3F   4/13   5/ 60/13
FOLLY BEACH CMAN 2000   81     340/  6/ 11 1012.0F
CAPERS NEARSHORE 2008   77 80   10/  8/ 12 1011.0F
FRIPP NEARSHORE  2008   80      10/ 10/ 12 1019.1R


STATION/POSITION TIME  TEMP    WIND        PRES    WAVE   SWELL
                       AIR SEA DIR/SP/G            HT/PER HT/PER/DIR
                 (UTC) (F)     (DEG/KT/KT) (MB)    (FT/S) (FT/S/D)
5E ST. MARYS GA  1930      82                N/A     5/12   3/110/12
FRYING PAN BUOY  2010   79 81  360/ 21/ 25 1009.1
BUOY 41025       1950   75 78   20/ 25/ 31 1008.7F  13/14  11/140/14
CAPE LOOKOUT NC  2000   78      10/ 18/ 23 1009.4F
BUOY 41002       1950   80 81  360/ 37/ 49  993.7F  23/10  15/ 90/11
BUOY 41010       2010          330/ 14/ 17 1009.2
ST AUGUSTINE FL  2000   80 83   20/ 16/ 18 1011.1F


$$




USA.gov is the U.S. government's official web portal to all federal, state and local government web resources and services.